This is the latest recevied weather packets stored in our database for station/object LZ0VRC-10. If no packets are shown the sender has not sent any weather packets the latest 10 day(s).
| Time | Temp. | Humidity | Pressure | Rain* | Wind** | Luminosity | Snow |
|---|---|---|---|---|---|---|---|
| 1777629338 | 12.22° C | 49% | 1027.2 hPa | - | - | - | - |
| 1777628443 | 13.33° C | 47% | 1027.3 hPa | - | - | - | - |
| 1777628438 | 13.33° C | 47% | 1027.3 hPa | - | - | - | - |
| 1777627538 | 12.22° C | 54% | 1027.4 hPa | - | - | - | - |
| 1777626638 | 11.67° C | 55% | 1027.4 hPa | - | - | - | - |
| 1777625743 | 11.67° C | 65% | 1027.5 hPa | - | - | - | - |
| 1777625738 | 11.67° C | 65% | 1027.5 hPa | - | - | - | - |
| 1777624838 | 9.44° C | 65% | 1027.5 hPa | - | - | - | - |
| 1777623943 | 10° C | 64% | 1027.5 hPa | - | - | - | - |
| 1777623938 | 10° C | 64% | 1027.5 hPa | - | - | - | - |
| 1777623038 | 11.11° C | 63% | 1027.5 hPa | - | - | - | - |
| 1777622143 | 9.44° C | - | 1027.5 hPa | - | - | - | - |
| 1777622138 | 9.44° C | - | 1027.5 hPa | - | - | - | - |
| 1777621238 | 10.56° C | 71% | 1027.5 hPa | - | - | - | - |
| 1777620338 | 8.89° C | 81% | 1027.3 hPa | - | - | - | - |
| 1777619443 | 7.78° C | 90% | 1027.3 hPa | - | - | - | - |
| 1777619438 | 7.78° C | 90% | 1027.3 hPa | - | - | - | - |
| 1777618543 | 6.11° C | 95% | 1027.3 hPa | - | - | - | - |
| 1777618538 | 6.11° C | 95% | 1027.3 hPa | - | - | - | - |
| 1777617643 | 7.22° C | 97% | 1027.2 hPa | - | - | - | - |
| 1777617638 | 7.22° C | 97% | 1027.2 hPa | - | - | - | - |
| 1777616743 | 5.56° C | 99% | 1027.2 hPa | - | - | - | - |
| 1777616738 | 5.56° C | 99% | 1027.2 hPa | - | - | - | - |
| 1777615838 | 5° C | 99% | 1027.1 hPa | - | - | - | - |
| 1777614938 | 4.44° C | 99% | 1026.9 hPa | - | - | - | - |
* Rain since midnight (hover to see other rain measurements)
** Current wind speed in m/s (hover to see current wind gust speed)